Location: PSU-Greenbush Astrophysical Observatory
(37.5140°N, 94.9880°W)
Time: 19:09:24
(UTC-06:00)

deb Explorer IX - Pass Details

Date: 02 February 2020
Orbit: 549 x 1099 km, 38.8° (Epoch: 27 February)

Event Time Altitude Azimuth Distance (km) Brightness Sun altitude
Rises 00:37:52 0° 284° (WNW) 3,811 - -69.4°
Reaches altitude 10° 00:40:45 10° 276° (W) 2,900 - -69.4°
Maximum altitude 00:47:12 37° 213° (SSW) 1,642 - -69.2°
Drops below altitude 10° 00:53:42 10° 149° (SSE) 2,912 - -69.0°
Sets 00:56:36 0° 141° (SE) 3,829 - -68.8°
